Regional Weather Roundup
Issued by NWS

Home | Current Version | Previous Version | Graphics & Text | Print | Product List | Glossary On
Versions: 1 2 3 4 5 6 7 8 9 10 11 12 13 14 15 16 17 18 19 20 21 22 23 24 25 26 27 28
000
ASUS45 KBOU 200106
RWRCO

WEATHER ROUNDUP FOR COLORADO
NATIONAL WEATHER SERVICE DENVER/BOULDER CO
700 PM MDT SAT APR 19 2014

NOTE: "FAIR" INDICATES FEW OR NO CLOUDS BELOW 12000 FEET WITH NO
SIGNIFICANT WEATHER AND/OR OBSTRUCTIONS TO VISIBILITY.

COZ001>005-013-030-031-200200-
...NORTHWEST COLORADO...

CITY           SKY/WX    TMP DP  RH WIND       PRES   REMARKS
CRAIG          PTCLDY    57  40  52 SE8       30.06S
HAYDEN         PTCLDY    55  36  47 CALM      30.10F
MEEKER         PTCLDY    59  37  44 CALM      30.05S
MOUNT WERNER   PTCLDY    41  28  60 W5        30.26R
STEAMBOAT SPGS PTCLDY    55  33  43 CALM      30.09F
WALDEN         MOCLDY    50  32  50 W5        30.13S
$$

COZ006>008-011-200200-
...WEST CENTRAL VALLEYS...

CITY           SKY/WX    TMP DP  RH WIND       PRES   REMARKS
GRAND JUNCTION CLOUDY    62  44  51 NW9       30.03S
MONTROSE       MOCLDY    61  39  44 NW5       30.08R
EAGLE          CLOUDY    57  37  47 E5        30.09R
RIFLE          CLOUDY    64  37  36 W9        30.03S
DELTA          CLOUDY    65  40  40 E7        30.05R
NUCLA            N/A     61  41  48 N3        30.10S
$$

COZ017>023-064>068-200200-
...SOUTHWEST COLORADO...

CITY           SKY/WX    TMP DP  RH WIND       PRES   REMARKS
DURANGO        CLOUDY    60  30  32 NW9       30.07S
CORTEZ         CLEAR     64  29  26 W9        30.05S
PAGOSA SPRINGS CLOUDY    56  32  40 NW3       30.12S
TELLURIDE      CLOUDY    46  36  66 W10G16    30.19R
WOLF CREEK PAS CLOUDY    32  28  86 SW15      30.29S WCI  22
$$

COZ009-010-012-014-032>034-037-058>063-200200-
...CENTRAL COLORADO...

CITY           SKY/WX    TMP DP  RH WIND       PRES   REMARKS
ASPEN          CLOUDY    53  33  46 N5        30.11R
BUENA VISTA    MOCLDY    51  34  51 E6        30.12S
COPPER MTN     SNOW      34  32  93 W9        30.30R VSB<1/4 WCI  26
BERTHOUD PASS  HVY SNOW  28  19  69 MISG      30.33S VSB<1/4
COTTONWOOD PAS MOCLDY    45  34  65 SE8       30.21S
GUNNISON       CLOUDY    55  30  38 SW14      30.14R
KREMMLING      CLOUDY    50  41  71 CALM      30.14F
LEADVILLE      LGT RAIN  38  30  73 NW10      30.19R
MONARCH PASS   CLOUDY    34  30  86 NW8       30.40R WCI  27
SALIDA         MOCLDY    56  33  40 W6        30.17S
SUNLIGHT       CLOUDY    39  34  81 CALM      30.27S
WILKERSON PASS SNOW      32  32 100 NW5       30.31S VSB<1/4 WCI  27
$$

COZ069>075-200200-
...SAN LUIS VALLEY/SANGRE DE CRISTO MOUNTAINS...

CITY           SKY/WX    TMP DP  RH WIND       PRES   REMARKS
ALAMOSA        MOCLDY    60  25  26 SW8       30.04S
LA VETA PASS   CLOUDY    41  32  70 E5        30.21F
SAGUACHE       CLOUDY    55  30  38 NW17G28   30.09R
$$

COZ035-036-038>040-200200-
...NORTHERN COLORADO FRONT RANGE...

CITY           SKY/WX    TMP DP  RH WIND       PRES   REMARKS
DENVER INTL AP CLOUDY    53  49  86 NW9       30.07S
DMNS CITY PARK   N/A     53  45  72 NW9       30.07S
AURORA         LGT RAIN  52  46  82 NW13      30.09R
FRONT RANGE AP NOT AVBL
ERIE MUNI ARPT LGT RAIN  53  48  84 CALM      30.07S
BOULDER MUN AP CLOUDY    52  45  76 SW9       30.07S
CENTENNIAL     LGT RAIN  51  45  79 N9        30.09R
BROOMFIELD     LGT RAIN  52  46  82 W10       30.09R
FORT COLLINS   CLOUDY    55  43  62 S10       30.08R
LONGMONT       DRIZZLE   53  48  83 SW7       30.08F
$$

COZ041-046-047-076>085-087-088-200200-
...PIKES PEAK/PALMER DIVIDE AND SOUTHERN FOOTHILLS...

CITY           SKY/WX    TMP DP  RH WIND       PRES   REMARKS
COLO. SPRINGS  LGT RAIN  55  42  61 N17       30.08R
A. F. ACADEMY  CLOUDY    54  40  58 S8        30.10S
ELLICOTT       NOT AVBL
FALCON         CLOUDY    56  32  40 NE5       30.10R
FORT CARSON    MOCLDY    57  42  57 N15       30.05R
LIMON          CLEAR     59  36  42 NE13      30.02F
MONUMENT HILL  CLOUDY    54  32  43 E6        30.11R
TRINIDAD       CLOUDY    61  40  45 S13       30.02F
$$

COZ042>045-048>051-090-091-200200-
...NORTHEAST COLORADO...

CITY           SKY/WX    TMP DP  RH WIND       PRES   REMARKS
GREELEY ARPT   CLOUDY    57  41  54 S9        30.07R
AKRON          MOCLDY    59  38  45 E10       30.02F
BURLINGTON     PTCLDY    64  44  48 NE16      29.99R
WRAY           MOCLDY    65  40  40 NE9G25    30.01R
STERLING       CLOUDY    64  41  42 E7        30.00S
HOLYOKE        MOCLDY    63  37  39 E7        30.02S
FORT MORGAN    MOCLDY    57  37  47 NE6       30.04S
$$

COZ086-089-092>099-200200-
...SOUTHEAST COLORADO...

CITY           SKY/WX    TMP DP  RH WIND       PRES   REMARKS
PUEBLO         MOCLDY    69  37  30 NE17      29.95R
LA JUNTA       CLOUDY    71  43  36 NE28G33   29.90R
LAMAR          CLOUDY    70  48  45 S17       29.87R
SPRINGFIELD      N/A     64  42  44 S16       29.94F
$$



USA.gov is the U.S. government's official web portal to all federal, state and local government web resources and services.